Showing default

RUBIN 4/SL-8, 27940

Orbit data source: Space-Track

RUBIN 4/SL-8, 27940 is a payload satellite owned by KVR (DE) in SSO that was launched on Sat, 27 Sep 2003 UTC launched from the Plesetsk Missile And Space Complex (PKMTR). Payload-class satellites include a variety of spacecraft equipped with specific instruments for various scientific and technological missions. These include communications satellites like Starlink; space stations such as the ISS; scientific satellites like the Hubble; Earth observation satellites from companies like Planet Labs, Umbra, and HawkEye 360; GPS; miniature CubeSats for education and research; and military/defense satellites.

Loading next visibility...
Identifier
27940, 2003-042B
Orbit
SSO
Country
Flag of DEDE / GER
Related business
Manufacturer
Polyot
Mission
Spacecraft
Bus & Motor
S3, Unknown motor
Mass
1,479 kg wet, 1,434 kg dry
Launch date (UTC)
2003-09-27 (23 years ago)
Launch vehicle
Unknown
Launch site
Plesetsk Missile And Space Complex (PKMTR)
Object type
Payload
Rocket body
Debris
Shape & HBR
Cyl, 2.1 m
Radar Cross Section
10.179 m², Large (>1 m²)

Expand to show TLE details & history
Last TLE update: 12 hours ago

TLE from 12 hours ago
0 RUBIN 4/SL-8
1 27940U 03042B   26121.46820936  .00000683  00000-0  12403-3 0  9991
2 27940  98.3858 298.2025 0013840 140.3340 219.8880 14.69440295207700
Epoch: 2026-05-01T11:14Z
TLE epoch observation values (Epoch: 2026-05-01T11:14:13.288Z)
Latitude
Longitude
-89.7529°
Altitude
673.332 km
Speed
7.516 km/s
True Right ascension
19h 52m 48s
True Declination
0° 00' 00"
Sunlit
Object was in daylight at epoch
Visualization orbit readout
Latitude
Unknown
Longitude
Unknown
Altitude
Unknown
Speed
Unknown
Apparent Right ascension
Unknown
Apparent Declination
Unknown
Sunlit
N/A
Visualization observer readout
Local Sidereal Time
06:54:42
Azimuth
Unknown
Elevation
Unknown
Doppler factor
Unknown
Orbital elements
Apogee altitude
669.673 km
Perigee altitude
650.192 km
Semi-major axis
7,038.07 km
Eccentricity
0.00138
Inclination
98.3858°
RAAN
298.2025°
Arg. of periapsis
140.334°
True anomaly
219.78643°
Mean anomaly
219.888°
Eccentric anomaly
219.8372°
Mean motion
3.67589 °/min
Orbital period
97.94 mins
BSTAR
0.00012403
Loading maneuver chart data...
Computing Atmospheric mass density...
Loading historical data...
Loading historical data...
Loading historical data...
Loading historical data...
Loading historical data...
Loading historical data...
Loading historical data...
Other satellites on launch #42 in the year 2003 (2003-09-27 UTC)

Documentation

Showing up to 5 results
|